Location: Gönnheim
(49.4488°N, 8.2383°E)
Time: 06:32:58
(UTC+00:00)

Meteor 2-15 Rocket - Pass Details

Date: 19 May 2025
Orbit: 938 x 956 km, 82.5° (Epoch: 14 June)

Event Time Altitude Azimuth Distance (km) Brightness Sun altitude
Rises 22:52:52 0° 348° (NNW) 3,636 9.1 -20.2°
Reaches altitude 10° 22:55:22 10° 346° (NNW) 2,684 8.0 -20.3°
Maximum altitude 23:01:28 72° 264° (W) 995 4.5 -20.4°
Enters shadow 23:04:01 37° 190° (S) 1,439 4.9 -20.4°
